User: anonymous   Login
Location: Unspecified
(0.0000°N, 0.0000°E)
Time: 03:33:47
(UTC+00:00)
Language:

NUSAT 2 - Orbit

View from above orbital plane
View from above orbital plane
View from above satellite
View from above satellite

Ground track
Ground track

The orbit data is extracted from the following two-line orbital elements,

1 41558U 16033C   17173.87921569 +.00001287 +00000-0 +51401-4 0  9995
2 41558 097.4658 253.4507 0013429 353.4807 006.6255 15.26930622059294
Epoch (UTC): 22 June 2017 21:06:04
Eccentricity: 0.0013429
inclination: 97.4658°
perigee height: 476 km
apogee height: 494 km
right ascension of ascending node: 253.4507°
argument of perigee: 353.4807°
revolutions per day: 15.26930622
mean anomaly at epoch: 6.6255°
orbit number at epoch: 5929

The dashed part of the orbit path shows where the satellite is in the earth's shadow,  

DLR